This demonstration page uses our WeatherBlox Daily Observations layout. Learn more.

Left ArrowRight Arrow

47.50024, -111.30081

Hourly Observations for January 25, 2016

Temp ( °F °C ) Dew Point ( °F °C ) Humidity (%) Winds ( mph kmh ) Pressure ( in mb ) Visibility ( mi km ) Precip ( " mm )
12:06 am 00:06 Cloudy 28 -2 27 -3 93 93 SW 7 11 30.21 1023 10 16 0.00 0.00
12:16 am 00:16 Cloudy 28 -2 27 -3 93 93 SSW 7 11 30.21 1023 10 16 0.00 0.00
12:53 am 00:53 Cloudy 27 -2.8 25 -3.9 92 92 SSW 7 11 30.16 1021 10 16 0.00 0.00
1:53 am 01:53 Cloudy 29 -1.7 26 -3.3 89 89 SSW 10 17 30.16 1021 10 16 0.00 0.00
2:53 am 02:53 Cloudy 29 -1.7 26 -3.3 89 89 SSW 8 13 30.18 1022 10 16 0.00 0.00
3:53 am 03:53 Mostly Cloudy 29 -1.7 25 -3.9 85 85 SSW 12 19 30.17 1022 10 16 0.00 0.00
4:53 am 04:53 Mostly Cloudy 27 -2.8 23 -5 85 85 SW 13 20 30.18 1022 10 16 0.00 0.00
5:53 am 05:53 Clear 26 -3.3 22 -5.6 84 84 SW 12 19 30.19 1022 10 16 0.00 0.00
6:53 am 06:53 Clear 26 -3.3 21 -6.1 81 81 SSW 12 19 30.20 1023 10 16 0.00 0.00
7:53 am 07:53 Clear 28 -2.2 20 -6.7 72 72 SSW 13 20 30.19 1022 10 16 0.00 0.00
8:53 am 08:53 Sunny 28 -2.2 21 -6.1 75 75 SSW 13 20 30.21 1023 10 16 0.00 0.00
9:53 am 09:53 Sunny 32 0 22 -5.6 66 66 SSW 12 19 30.21 1023 10 16 0.00 0.00
10:53 am 10:53 Sunny 35 1.7 22 -5.6 59 59 SW 14 22 30.21 1023 10 16 0.00 0.00
11:53 am 11:53 Sunny 37 2.8 20 -6.7 50 50 SW 14 22 30.20 1023 10 16 0.00 0.00
12:53 pm 12:53 Mostly Sunny 37 2.8 20 -6.7 50 50 SSW 15 24 30.20 1023 10 16 0.00 0.00
1:53 pm 13:53 Sunny 39 3.9 20 -6.7 46 46 SW 14 22 30.17 1022 10 16 0.00 0.00
2:53 pm 14:53 Sunny 40 4.4 20 -6.7 45 45 SW 13 20 30.17 1022 10 16 0.00 0.00
3:53 pm 15:53 Sunny 39 3.9 20 -6.7 46 46 SW 15 24 30.19 1022 10 16 0.00 0.00
4:53 pm 16:53 Sunny 34 1.1 22 -5.6 61 61 SSW 10 17 30.22 1023 10 16 0.00 0.00
5:53 pm 17:53 Clear 31 -0.6 21 -6.1 67 67 SW 13 20 30.24 1024 10 16 0.00 0.00
6:53 pm 18:53 Clear 28 -2.2 20 -6.7 72 72 SW 10 17 30.26 1025 10 16 0.00 0.00
7:53 pm 19:53 Clear 27 -2.8 19 -7.2 72 72 SSW 12 19 30.24 1024 10 16 0.00 0.00
8:53 pm 20:53 Clear 26 -3.3 19 -7.2 75 75 SSW 12 19 30.25 1024 10 16 0.00 0.00
9:53 pm 21:53 Clear 26 -3.3 18 -7.8 71 71 SW 10 17 30.24 1024 10 16 0.00 0.00
10:53 pm 22:53 Clear 26 -3.3 19 -7.2 75 75 SSW 12 19 30.22 1024 10 16 0.00 0.00
11:53 pm 23:53 Clear 28 -2.2 19 -7.2 69 69 SSW 14 22 30.21 1023 10 16 0.00 0.00

Powered by AerisWeather